FW7008 Weather Reports


Display with metric or nautical units.
time (UTC)temp
F
wind
direction
speed
MPH
gust
MPH
rain 1hr
in
rain 24hr
in
rain mn
in
humidity
%
barometer
mb
20260903202156 82 143 0.0 0.0 0.00 0.00 0.00 64 1013.5
20260903201649 80 74 4.0 6.0 0.00 0.00 0.00 66 1013.5
20260903201144 81 79 0.0 0.0 0.00 0.00 0.00 66 1013.5
20260903200638 81 64 0.0 0.0 0.00 0.00 0.00 66 1013.5
20260903200134 79 68 0.0 0.0 0.00 0.00 0.00 69 1013.2
20260903195630 80 60 5.0 6.0 0.00 0.00 0.00 66 1013.5
20260903195125 80 85 2.0 2.0 0.00 0.00 0.00 68 1013.9
20260903194620 80 69 4.0 6.0 0.00 0.00 0.00 66 1013.9
20260903194120 79 99 6.0 7.0 0.00 0.00 0.00 68 1013.9
20260903193616 78 48 2.0 3.0 0.00 0.00 0.00 70 1013.9
20260903193112 79 67 4.0 6.0 0.00 0.00 0.00 68 1013.9
20260903192608 78 45 5.0 7.0 0.00 0.00 0.00 68 1014.2
20260903192103 78 145 2.0 3.0 0.00 0.00 0.00 68 1014.2
20260903191559 78 147 5.0 8.0 0.00 0.00 0.00 70 1014.2
20260903191054 78 91 5.0 7.0 0.00 0.00 0.00 68 1014.2
20260903190554 78 46 5.0 8.0 0.00 0.00 0.00 66 1014.2
20260903190053 78 92 7.0 9.0 0.00 0.00 0.00 69 1014.6
20260903185548 78 118 6.0 9.0 0.00 0.00 0.00 68 1014.9
20260903185043 78 96 4.0 6.0 0.00 0.00 0.00 69 1014.6
20260903184534 78 47 5.0 7.0 0.00 0.00 0.00 69 1014.6
20260903184029 79 56 5.0 7.0 0.00 0.00 0.00 66 1014.6
20260903183528 79 97 6.0 8.0 0.00 0.00 0.00 69 1014.9
20260903183024 78 64 3.0 5.0 0.00 0.00 0.00 69 1014.9
20260903182522 77 66 5.0 7.0 0.00 0.00 0.00 69 1014.9
20260903182019 78 94 4.0 7.0 0.00 0.00 0.00 70 1014.9
20260903181518 79 82 5.0 6.0 0.00 0.00 0.00 69 1014.9
20260903181018 78 98 2.0 2.0 0.00 0.00 0.00 69 1014.9
20260903180513 78 88 5.0 7.0 0.00 0.00 0.00 71 1014.9
20260903180012 76 84 0.0 0.0 0.00 0.00 0.00 73 1014.6
20260903175505 76 124 0.0 0.0 0.00 0.00 0.00 72 1014.9
20260903175004 77 142 0.0 0.0 0.00 0.00 0.00 70 1014.9
20260903174500 78 82 3.0 5.0 0.00 0.00 0.00 69 1014.9
20260903173954 76 96 3.0 3.0 0.00 0.00 0.00 72 1014.9
20260903173449 77 104 3.0 5.0 0.00 0.00 0.00 72 1014.9
20260903172945 77 42 0.0 0.0 0.00 0.00 0.00 71 1015.2
20260903172440 77 73 3.0 3.0 0.00 0.00 0.00 71 1014.9
20260903171935 75 352 0.0 0.0 0.00 0.00 0.00 72 1014.9
20260903171431 75 91 0.0 0.0 0.00 0.00 0.00 75 1014.9
20260903170930 74 330 0.0 0.0 0.00 0.00 0.00 76 1014.9
20260903170425 74 310 0.0 0.0 0.00 0.00 0.00 76 1014.9
20260903165924 74 139 0.0 0.0 0.00 0.00 0.00 76 1014.9
20260903165418 75 128 0.0 0.0 0.00 0.00 0.00 75 1014.9
20260903164913 75 125 0.0 0.0 0.00 0.00 0.00 74 1014.9
20260903164408 74 65 0.0 0.0 0.00 0.00 0.00 75 1014.9
20260903163907 75 20 0.0 0.0 0.00 0.00 0.00 75 1014.9
20260903163404 74 58 0.0 0.0 0.00 0.00 0.00 75 1014.9
20260903162900 74 76 1.0 1.0 0.00 0.00 0.00 77 1014.9
20260903162356 74 44 0.0 0.0 0.00 0.00 0.00 78 1014.9
20260903161852 74 17 0.0 0.0 0.00 0.00 0.00 78 1014.9
20260903161346 72 56 0.0 0.0 0.00 0.00 0.00 80 1014.9
20260903160842 71 78 0.0 0.0 0.00 0.00 0.00 82 1014.9
20260903160341 71 51 0.0 0.0 0.00 0.00 0.00 83 1014.9
20260903155840 70 140 0.0 0.0 0.00 0.00 0.00 84 1014.9
20260903155335 70 86 0.0 0.0 0.00 0.00 0.00 84 1014.9
20260903154831 70 75 0.0 0.0 0.00 0.00 0.00 84 1015.2
20260903154327 70 85 0.0 0.0 0.00 0.00 0.00 85 1014.9
20260903153822 69 107 0.0 0.0 0.00 0.00 0.00 86 1014.9
20260903153318 69 141 0.0 0.0 0.00 0.00 0.00 87 1014.9
20260903152814 69 65 0.0 0.0 0.00 0.00 0.00 88 1014.9
20260903152310 69 65 0.0 0.0 0.00 0.00 0.00 89 1014.9
20260903151809 68 82 0.0 0.0 0.00 0.00 0.00 90 1014.9
20260903151306 68 70 0.0 0.0 0.00 0.00 0.00 90 1014.9
20260903150800 68 57 0.0 0.0 0.00 0.00 0.00 91 1014.9
20260903150300 68 61 0.0 0.0 0.00 0.00 0.00 91 1014.9
20260903145755 68 70 0.0 0.0 0.00 0.00 0.00 92 1015.2
20260903145250 68 101 0.0 0.0 0.00 0.00 0.00 93 1014.9
20260903144749 68 60 0.0 0.0 0.00 0.00 0.00 93 1014.9
20260903144245 67 60 0.0 0.0 0.00 0.00 0.00 94 1014.9
20260903143740 67 81 0.0 0.0 0.00 0.00 0.00 95 1014.6
20260903143236 66 91 0.0 0.0 0.00 0.00 0.00 95 1014.9
20260903142731 66 78 0.0 0.0 0.00 0.00 0.00 96 1014.6
20260903142228 66 93 0.0 0.0 0.00 0.00 0.00 96 1014.6
20260903141723 66 75 0.0 0.0 0.00 0.00 0.00 97 1014.6
20260903141219 66 73 0.0 0.0 0.00 0.00 0.00 97 1014.6
20260903140714 66 66 0.0 0.0 0.00 0.00 0.00 98 1014.2
20260903140209 65 66 0.0 0.0 0.00 0.00 0.00 98 1014.2
20260903135705 65 67 0.0 0.0 0.00 0.00 0.00 98 1014.2
20260903135200 65 69 0.0 0.0 0.00 0.00 0.00 98 1014.2
20260903134659 65 70 0.0 0.0 0.00 0.00 0.00 98 1014.2
20260903134155 65 70 0.0 0.0 0.00 0.00 0.00 98 1014.6
20260903133653 65 63 0.0 0.0 0.00 0.00 0.00 98 1014.2
20260903133148 65 63 0.0 0.0 0.00 0.00 0.00 98 1013.9
20260903132648 65 63 0.0 0.0 0.00 0.00 0.00 98 1014.2
20260903132143 65 63 0.0 0.0 0.00 0.00 0.00 98 1014.2
20260903131638 65 62 0.0 0.0 0.00 0.00 0.00 98 1014.2
20260903131136 64 63 0.0 0.0 0.00 0.00 0.00 98 1014.2
20260903130632 64 63 0.0 0.0 0.00 0.00 0.00 98 1014.2
20260903130126 64 63 0.0 0.0 0.00 0.00 0.00 98 1014.6
20260903125624 64 63 0.0 0.0 0.00 0.00 0.00 98 1014.2
20260903125120 64 63 0.0 0.0 0.00 0.00 0.00 98 1013.9
20260903124620 64 63 0.0 0.0 0.00 0.00 0.00 98 1014.2
20260903124120 64 63 0.0 0.0 0.00 0.00 0.00 98 1014.2
20260903123620 64 63 0.0 0.0 0.00 0.00 0.00 98 1014.2
20260903123118 65 63 0.0 0.0 0.00 0.00 0.00 98 1014.2
20260903122618 64 63 0.0 0.0 0.00 0.00 0.00 98 1014.2
20260903122119 64 64 0.0 0.0 0.00 0.00 0.00 98 1014.2
20260903121618 64 64 0.0 0.0 0.00 0.00 0.00 98 1013.9
20260903121114 64 64 0.0 0.0 0.00 0.00 0.00 98 1014.2
20260903120613 64 60 0.0 0.0 0.00 0.00 0.00 98 1014.6
20260903120108 64 70 0.0 0.0 0.00 0.00 0.00 98 1014.6
20260903115605 64 70 0.0 0.0 0.00 0.00 0.00 98 1014.2
20260903115101 64 70 0.0 0.0 0.00 0.00 0.00 98 1014.2
20260903114555 65 73 0.0 0.0 0.00 0.00 0.00 98 1014.6
20260903114046 65 70 0.0 0.0 0.00 0.00 0.00 97 1014.2
20260903113541 65 70 0.0 0.0 0.00 0.00 0.00 97 1014.6
20260903113037 65 70 0.0 0.0 0.00 0.00 0.00 97 1014.6
20260903112533 65 70 0.0 0.0 0.00 0.00 0.00 97 1014.6
20260903112027 65 70 0.0 0.0 0.00 0.00 0.00 97 1014.6
20260903111520 65 70 0.0 0.0 0.00 0.00 0.00 97 1014.6
20260903111016 66 70 0.0 0.0 0.00 0.00 0.00 97 1014.6
20260903110512 65 70 0.0 0.0 0.00 0.00 0.00 97 1014.6
20260903110007 66 70 0.0 0.0 0.00 0.00 0.00 97 1014.2
20260903105502 66 72 0.0 0.0 0.00 0.00 0.00 96 1014.6
20260903105001 66 76 0.0 0.0 0.00 0.00 0.00 96 1014.6
20260903104501 65 80 0.0 0.0 0.00 0.00 0.00 96 1014.2
20260903103952 66 82 0.0 0.0 0.00 0.00 0.00 96 1014.6
20260903103448 66 85 0.0 0.0 0.00 0.00 0.00 96 1014.6
20260903102944 66 92 0.0 0.0 0.00 0.00 0.00 95 1014.6
20260903102439 67 104 0.0 0.0 0.00 0.00 0.00 96 1014.6
20260903101937 66 81 0.0 0.0 0.00 0.00 0.00 95 1014.9
20260903101432 67 82 0.0 0.0 0.00 0.00 0.00 95 1014.9
20260903100928 67 84 0.0 0.0 0.00 0.00 0.00 95 1014.6
20260903100423 67 90 0.0 0.0 0.00 0.00 0.00 95 1014.6
20260903095920 67 96 0.0 0.0 0.00 0.00 0.00 95 1014.9
20260903095415 68 104 0.0 0.0 0.00 0.00 0.00 95 1014.6
20260903094910 68 112 0.0 0.0 0.00 0.00 0.00 95 1014.9
20260903094409 68 120 0.0 0.0 0.00 0.00 0.00 95 1014.9
20260903093906 67 127 0.0 0.0 0.00 0.00 0.00 95 1014.9
20260903093400 67 110 0.0 0.0 0.00 0.00 0.00 94 1014.9
20260903092856 67 122 0.0 0.0 0.00 0.00 0.00 94 1014.6
20260903092355 68 121 0.0 0.0 0.00 0.00 0.00 94 1014.6
20260903091854 67 120 0.0 0.0 0.00 0.00 0.00 94 1014.9
20260903091354 68 124 0.0 0.0 0.00 0.00 0.00 94 1014.9
20260903090849 67 123 0.0 0.0 0.00 0.00 0.00 94 1014.9
20260903090344 68 113 0.0 0.0 0.00 0.00 0.00 94 1014.9
20260903085842 68 131 0.0 0.0 0.00 0.00 0.00 94 1014.9
20260903085336 68 111 0.0 0.0 0.00 0.00 0.00 94 1014.9
20260903084835 68 132 0.0 0.0 0.00 0.00 0.00 93 1014.9
20260903084334 68 162 0.0 0.0 0.00 0.00 0.00 93 1014.9
20260903083829 68 176 0.0 0.0 0.00 0.00 0.00 93 1014.9
20260903083325 68 122 0.0 0.0 0.00 0.00 0.00 93 1015.2
20260903082824 68 115 0.0 0.0 0.00 0.00 0.00 93 1015.2
20260903082319 68 131 0.0 0.0 0.00 0.00 0.00 93 1015.2
20260903081814 68 127 0.0 0.0 0.00 0.00 0.00 92 1015.2
20260903081310 68 217 0.0 0.0 0.00 0.00 0.00 92 1015.2
20260903080807 68 145 0.0 0.0 0.00 0.00 0.00 92 1015.2
20260903080303 68 194 0.0 0.0 0.00 0.00 0.00 92 1015.2
20260903075803 68 250 0.0 0.0 0.00 0.00 0.00 92 1015.2
20260903075258 68 230 0.0 0.0 0.00 0.00 0.00 92 1015.2
20260903074757 68 232 0.0 0.0 0.00 0.00 0.00 92 1015.2
20260903074252 69 245 0.0 0.0 0.00 0.00 0.00 91 1015.2
20260903073748 68 240 0.0 0.0 0.00 0.00 0.00 91 1015.2
20260903073243 68 218 0.0 0.0 0.00 0.00 0.00 91 1015.2
20260903072739 68 202 0.0 0.0 0.00 0.00 0.00 91 1014.9
20260903072235 68 181 0.0 0.0 0.00 0.00 0.00 92 1015.2
20260903071731 68 182 0.0 0.0 0.00 0.00 0.00 92 1014.9
20260903071227 69 225 0.0 0.0 0.00 0.00 0.00 92 1015.2
20260903070726 69 229 0.0 0.0 0.00 0.00 0.00 92 1015.2
20260903070222 69 224 0.0 0.0 0.00 0.00 0.00 91 1014.9
20260903065717 69 188 0.0 0.0 0.00 0.00 0.00 91 1014.9
20260903065216 69 215 0.0 0.0 0.00 0.00 0.00 91 1015.2
20260903064715 69 201 0.0 0.0 0.00 0.00 0.00 90 1015.2
20260903064211 69 207 4.0 5.0 0.00 0.00 0.00 89 1014.9
20260903063707 69 160 0.0 0.0 0.00 0.00 0.00 88 1014.9
20260903063201 69 234 0.0 0.0 0.00 0.00 0.00 87 1014.9
20260903062657 69 145 0.0 0.0 0.00 0.00 0.00 87 1015.2
20260903062152 69 209 0.0 0.0 0.00 0.00 0.00 87 1015.2
20260903061648 69 226 0.0 0.0 0.00 0.00 0.00 86 1015.2
20260903061147 69 224 5.0 8.0 0.00 0.00 0.00 86 1014.9
20260903060642 69 222 0.0 0.0 0.00 0.00 0.00 86 1014.9
20260903060137 70 235 0.0 0.0 0.00 0.00 0.00 85 1014.9
20260903055635 70 234 0.0 0.0 0.00 0.00 0.00 85 1014.9
20260903055133 70 175 4.0 6.0 0.00 0.00 0.00 84 1014.9
20260903054628 70 166 9.0 10.0 0.00 0.00 0.00 84 1014.6
20260903054124 70 251 5.0 9.0 0.00 0.00 0.00 83 1014.9
20260903053619 70 248 2.0 2.0 0.00 0.00 0.00 84 1014.9
20260903053115 70 234 2.0 6.0 0.00 0.00 0.00 84 1014.9
20260903052611 70 242 9.0 11.0 0.00 0.00 0.00 84 1014.9
20260903052106 70 236 10.0 13.0 0.00 0.00 0.00 84 1014.9
20260903051601 70 241 7.0 8.0 0.00 0.00 0.00 84 1014.6
20260903051056 70 231 3.0 8.0 0.00 0.00 0.00 85 1014.9
20260903050555 70 217 5.0 7.0 0.00 0.00 0.00 85 1014.9
20260903050051 70 259 9.0 14.0 0.00 0.00 0.00 85 1014.6
20260903045550 70 219 7.0 10.0 0.00 0.00 0.00 85 1014.9
20260903045047 70 255 6.0 11.0 0.00 0.00 0.00 85 1014.9
20260903044543 70 232 8.0 10.0 0.00 0.00 0.00 85 1014.9
20260903044038 70 245 7.0 8.0 0.00 0.00 0.00 86 1014.6
20260903043533 70 236 10.0 14.0 0.00 0.00 0.00 86 1014.6
20260903043033 70 234 8.0 10.0 0.00 0.00 0.00 86 1014.9
20260903042527 70 252 0.0 1.0 0.00 0.00 0.00 87 1014.9
20260903042023 70 230 0.0 1.0 0.00 0.00 0.00 87 1014.9
20260903041520 70 197 1.0 3.0 0.00 0.00 0.00 87 1014.6
20260903041015 70 195 0.0 0.0 0.00 0.00 0.00 87 1014.6
20260903040514 70 235 0.0 0.0 0.00 0.00 0.00 87 1014.6
20260903040011 70 145 0.0 0.0 0.00 0.00 0.00 86 1014.6
20260903035505 70 191 0.0 0.0 0.00 0.00 0.00 85 1014.6
20260903035001 70 189 0.0 0.0 0.00 0.00 0.00 84 1014.6
20260903034456 70 201 0.0 0.0 0.00 0.00 0.00 84 1014.6
20260903033955 70 145 0.0 0.0 0.00 0.00 0.00 84 1014.6
20260903033451 70 197 0.0 0.0 0.00 0.00 0.00 84 1014.6
20260903032946 70 142 0.0 0.0 0.00 0.00 0.00 83 1014.6
20260903032441 70 170 3.0 5.0 0.00 0.00 0.00 82 1014.6
20260903031936 70 230 4.0 6.0 0.00 0.00 0.00 82 1014.6
20260903031431 70 213 0.0 0.0 0.00 0.00 0.00 82 1014.6
20260903030926 70 238 0.0 0.0 0.00 0.00 0.00 82 1014.2
20260903030422 71 190 0.0 0.0 0.00 0.00 0.00 81 1014.6
20260903025918 71 224 0.0 0.0 0.00 0.00 0.00 81 1014.6
20260903025414 71 184 0.0 0.0 0.00 0.00 0.00 80 1014.6
20260903024908 71 207 4.0 5.0 0.00 0.00 0.00 79 1014.6
20260903024402 71 212 2.0 2.0 0.00 0.00 0.00 79 1014.6
20260903023857 71 212 3.0 5.0 0.00 0.00 0.00 79 1014.6
20260903023353 71 241 0.0 2.0 0.00 0.00 0.00 79 1014.6
20260903022848 71 231 0.0 0.0 0.00 0.00 0.00 80 1014.2
20260903022347 71 222 0.0 0.0 0.00 0.00 0.00 81 1014.2
20260903021846 71 208 5.0 6.0 0.00 0.00 0.00 80 1014.2
20260903021341 71 251 0.0 0.0 0.00 0.00 0.00 81 1014.6
20260903020841 71 256 0.0 0.0 0.00 0.00 0.00 80 1014.6
20260903020337 71 235 0.0 0.0 0.00 0.00 0.00 80 1014.6
20260903015836 71 199 6.0 7.0 0.00 0.00 0.00 79 1014.2
20260903015332 71 240 8.0 10.0 0.00 0.00 0.00 79 1014.6
20260903014827 71 233 0.0 0.0 0.00 0.00 0.00 78 1014.2
20260903014322 72 230 4.0 6.0 0.00 0.00 0.00 78 1014.2
20260903013817 72 240 7.0 10.0 0.00 0.00 0.00 77 1014.6
20260903013316 72 232 5.0 6.0 0.00 0.00 0.00 78 1014.6
20260903012815 72 221 5.0 7.0 0.00 0.00 0.00 78 1014.6
20260903012310 72 251 8.0 9.0 0.00 0.00 0.00 78 1014.6
20260903011809 72 255 7.0 8.0 0.00 0.00 0.00 78 1014.6
20260903011308 73 231 3.0 7.0 0.00 0.00 0.00 77 1014.6
20260903010804 73 246 5.0 8.0 0.00 0.00 0.00 77 1014.2
20260903010300 73 243 6.0 7.0 0.00 0.00 0.00 77 1014.6
20260903005758 73 251 6.0 9.0 0.00 0.00 0.00 77 1014.6
20260903005253 73 220 9.0 11.0 0.00 0.00 0.00 77 1014.6
20260903004749 73 208 8.0 10.0 0.00 0.00 0.00 77 1014.6
20260903004244 73 232 8.0 9.0 0.00 0.00 0.00 78 1014.2
20260903003739 73 243 5.0 6.0 0.00 0.00 0.00 78 1014.6
20260903003234 74 238 5.0 6.0 0.00 0.00 0.00 78 1014.6
20260903002729 73 247 9.0 11.0 0.00 0.00 0.00 80 1014.2
20260903002223 73 250 10.0 14.0 0.00 0.00 0.00 80 1014.2
20260903001714 73 226 7.0 11.0 0.00 0.00 0.00 80 1014.6
20260903001212 73 239 6.0 8.0 0.00 0.00 0.00 80 1014.2
20260903000708 73 260 9.0 13.0 0.00 0.00 0.00 80 1014.6
20260903000207 73 245 8.0 9.0 0.00 0.00 0.00 79 1014.6
20260902235706 74 239 10.0 13.0 0.00 0.00 0.00 78 1014.6
20260902235202 74 281 7.0 11.0 0.00 0.00 0.00 78 1014.6
20260902234701 75 251 9.0 11.0 0.00 0.00 0.00 76 1014.6
20260902234159 75 242 4.0 6.0 0.00 0.00 0.00 77 1014.9
20260902233654 75 227 11.0 16.0 0.00 0.00 0.00 76 1014.6
20260902233154 74 259 10.0 10.0 0.00 0.00 0.00 77 1014.9
20260902232653 74 229 8.0 10.0 0.00 0.00 0.00 78 1014.9
20260902232153 75 254 11.0 14.0 0.00 0.00 0.00 76 1014.9
20260902231647 75 176 8.0 10.0 0.00 0.00 0.00 75 1014.6
20260902231142 75 218 7.0 8.0 0.00 0.00 0.00 76 1014.9
20260902230638 75 213 7.0 9.0 0.00 0.00 0.00 76 1014.9
20260902230136 75 252 5.0 10.0 0.00 0.00 0.00 76 1014.9
20260902225632 75 264 7.0 9.0 0.00 0.00 0.00 75 1014.9
20260902225131 76 219 3.0 5.0 0.00 0.00 0.00 74 1014.9
20260902224629 76 231 11.0 11.0 0.00 0.00 0.00 73 1014.9
20260902224125 76 245 6.0 8.0 0.00 0.00 0.00 72 1014.9
20260902223621 77 229 6.0 9.0 0.00 0.00 0.00 70 1014.9
20260902223120 77 238 7.0 8.0 0.00 0.00 0.00 70 1014.9
20260902222619 76 204 7.0 9.0 0.00 0.00 0.00 70 1015.2
20260902222119 77 233 10.0 13.0 0.00 0.00 0.00 68 1015.6
20260902221613 77 239 11.0 11.0 0.00 0.00 0.00 68 1014.9
20260902221108 76 236 7.0 8.0 0.00 0.00 0.00 66 1015.2
20260902220604 77 242 10.0 11.0 0.00 0.00 0.00 65 1015.2
20260902220058 77 228 7.0 9.0 0.00 0.00 0.00 61 1015.6
20260902215554 77 154 6.0 7.0 0.00 0.00 0.00 60 1015.6
20260902215049 77 200 5.0 7.0 0.00 0.00 0.00 58 1015.6
20260902214544 77 257 13.0 15.0 0.00 0.00 0.00 62 1015.6
20260902214043 77 210 2.0 3.0 0.00 0.00 0.00 63 1015.6
20260902213539 78 275 6.0 8.0 0.00 0.00 0.00 58 1015.9
20260902213038 76 212 7.0 10.0 0.00 0.00 0.00 61 1015.6
20260902212534 77 274 6.0 9.0 0.00 0.00 0.00 62 1015.9
20260902212030 75 231 7.0 10.0 0.00 0.00 0.00 67 1015.6
20260902211526 76 236 6.0 8.0 0.00 0.00 0.00 70 1015.9
20260902211020 76 244 5.0 8.0 0.00 0.00 0.00 66 1015.9
20260902210514 76 275 6.0 9.0 0.00 0.00 0.00 69 1016.2
20260902210014 76 242 5.0 9.0 0.00 0.00 0.00 67 1015.9
20260902205508 76 234 9.0 11.0 0.00 0.00 0.00 68 1016.2
20260902205004 77 178 4.0 6.0 0.00 0.00 0.00 65 1015.9
20260902204503 76 261 8.0 10.0 0.00 0.00 0.00 67 1016.2
20260902203959 76 207 8.0 11.0 0.00 0.00 0.00 65 1015.9
20260902203454 77 252 9.0 13.0 0.00 0.00 0.00 65 1015.9
20260902202953 76 258 7.0 8.0 0.00 0.00 0.00 69 1015.9